Location: Famechon
(49.7599°N, 2.0615°E)
Time: 08:07:43
(UTC+00:00)

Cosmos 1892 - Pass Details

Date: 03 February 2023
Orbit: 487 x 506 km, 82.5° (Epoch: 22 March)

Event Time Altitude Azimuth Distance (km) Brightness Sun altitude
Rises 18:06:00 0° 187° (S) 2,572 6.5 -12.5°
Reaches altitude 10° 18:08:05 10° 187° (S) 1,699 5.5 -12.9°
Maximum altitude 18:11:49 87° 100° (E) 510 2.6 -13.5°
Drops below altitude 10° 18:15:37 10° 11° (N) 1,730 5.2 -14.1°
Sets 18:17:45 0° 11° (N) 2,625 6.1 -14.4°
